Weather History for Siloam Springs, AR

Change the Weather History Date:

Monday, December 10, 2012

  Actual Average Record
Temperature  
Mean Temperature 26 °F -  
Max Temperature 33 °F 47 °F 69 °F (1996)
Min Temperature 17 °F 31 °F 10 °F (2013)
Degree Days  
Heating Degree Days 39    
Moisture  
Dew Point 14 °F    
Average Humidity 59    
Maximum Humidity 74    
Minimum Humidity 51    
Precipitation  
Precipitation 0.00 in - - ()
Sea Level Pressure  
Sea Level Pressure 30.07 in    
Wind  
Wind Speed 12 mph (NNW)    
Max Wind Speed 16 mph    
Max Gust Speed 23 mph    
Visibility 10 miles    
Events      
Averages and records for this station are not official NWS values.
T = Trace of Precipitation, MM = Missing Value Source: NWS Daily Summary

Daily Weather History Graph

Daily Weather History Graph

Search for Another Location

Airport:

Trip Planner

Search our weather history database for the weather conditions in past years. The results will help you decide how hot, cold, wet, or windy it might be!

Date:

Astronomy

Dec. 10, 2012 Rise Set
Actual Time 7:18 AM CST 5:03 PM CST
Civil Twilight 6:50 AM CST 5:32 PM CST
Nautical Twilight 6:17 AM CST 6:04 PM CST
Astronomical Twilight 5:46 AM CST 6:35 PM CST
Moon 4:06 AM CST (12/10) 2:50 PM CST (12/10)
Length of Visible Light 10h 42m
Length of Day
9h 44m
Waning Crescent, 10% of the Moon is Illuminated
Dec 10
Waning Crescent
Dec 13
New
Dec 19
First Quarter
Dec 28
Full
Jan 4
Last Quarter

Hourly Weather History & Observations

Time (CST) Temp. Windchill Dew Point Humidity Pressure Visibility Wind Dir Wind Speed Gust Speed Precip Events Conditions
12:15 AM 28.4 °F 16.6 °F 14.0 °F 55% 30.05 in 10.0 mi NNW 16.1 mph 23.0 mph N/A   Clear
12:55 AM 28.4 °F 16.6 °F 12.2 °F 51% 30.04 in 10.0 mi NNW 16.1 mph - N/A   Clear
1:15 AM 26.6 °F 14.7 °F 12.2 °F 55% 30.04 in 10.0 mi North 15.0 mph - N/A   Clear
1:35 AM 26.6 °F 15.7 °F 12.2 °F 55% 30.03 in 10.0 mi NNW 12.7 mph - N/A   Clear
1:55 AM 26.6 °F 15.7 °F 12.2 °F 55% 30.02 in 10.0 mi NNW 12.7 mph - N/A   Clear
1:56 AM 26.6 °F 15.2 °F 12.2 °F 55% 30.02 in 10.0 mi NNW 13.8 mph - N/A   Clear
2:15 AM 26.6 °F 16.2 °F 12.2 °F 55% 30.01 in 10.0 mi North 11.5 mph - N/A   Clear
3:35 AM 24.8 °F 12.4 °F 12.2 °F 59% 30.04 in 10.0 mi NNW 15.0 mph 23.0 mph N/A   Mostly Cloudy
3:55 AM 26.6 °F 16.2 °F 12.2 °F 55% 30.04 in 10.0 mi NNW 11.5 mph - N/A   Overcast
4:15 AM 26.6 °F 15.2 °F 12.2 °F 55% 30.04 in 10.0 mi NNW 13.8 mph - N/A   Overcast
4:35 AM 24.8 °F 12.4 °F 12.2 °F 59% 30.03 in 10.0 mi NW 15.0 mph 23.0 mph N/A   Overcast
4:55 AM 24.8 °F 12.4 °F 12.2 °F 59% 30.04 in 10.0 mi NNW 15.0 mph - N/A   Overcast
5:15 AM 24.8 °F 14.6 °F 12.2 °F 59% 30.04 in 10.0 mi NNW 10.4 mph - N/A   Overcast
5:55 AM 24.8 °F 12.4 °F 10.4 °F 54% 30.06 in 10.0 mi NW 15.0 mph - N/A   Overcast
6:15 AM 24.8 °F 13.4 °F 10.4 °F 54% 30.08 in 10.0 mi NNW 12.7 mph - N/A   Overcast
6:35 AM 24.8 °F 13.4 °F 10.4 °F 54% 30.08 in 10.0 mi NW 12.7 mph 17.3 mph N/A   Overcast
6:55 AM 24.8 °F 12.9 °F 12.2 °F 59% 30.10 in 10.0 mi NNW 13.8 mph 17.3 mph N/A   Overcast
7:15 AM 24.8 °F 13.4 °F 12.2 °F 59% 30.09 in 10.0 mi NW 12.7 mph 17.3 mph N/A   Overcast
7:55 AM 24.8 °F 11.9 °F 12.2 °F 59% 30.10 in 10.0 mi NNW 16.1 mph 21.9 mph N/A   Overcast
8:15 AM 24.8 °F 12.9 °F 12.2 °F 59% 30.09 in 10.0 mi NW 13.8 mph - N/A   Overcast
8:35 AM 24.8 °F 12.9 °F 12.2 °F 59% 30.09 in 10.0 mi NNW 13.8 mph - N/A   Overcast
8:55 AM 24.8 °F 14.0 °F 12.2 °F 59% 30.10 in 10.0 mi NNW 11.5 mph - N/A   Overcast
9:35 AM 24.8 °F 14.0 °F 14.0 °F 64% 30.10 in 10.0 mi North 11.5 mph - N/A   Overcast
9:55 AM 24.8 °F 15.3 °F 12.2 °F 59% 30.09 in 10.0 mi NNW 9.2 mph - N/A   Overcast
10:15 AM 26.6 °F 16.2 °F 15.8 °F 64% 30.10 in 10.0 mi NNW 11.5 mph - N/A   Overcast
10:35 AM 26.6 °F 18.2 °F 14.0 °F 59% 30.10 in 10.0 mi NW 8.1 mph - N/A   Overcast
11:15 AM 28.4 °F 18.5 °F 15.8 °F 59% 30.10 in 10.0 mi WNW 11.5 mph 16.1 mph N/A   Overcast
11:55 AM 28.4 °F 18.0 °F 15.8 °F 59% 30.09 in 10.0 mi WNW 12.7 mph 18.4 mph N/A   Overcast
12:15 PM 28.4 °F 19.7 °F 15.8 °F 59% 30.08 in 10.0 mi NNW 9.2 mph - N/A   Mostly Cloudy
12:55 PM 30.2 °F 21.3 °F 15.8 °F 55% 30.06 in 10.0 mi NNW 10.4 mph 17.3 mph N/A   Clear
1:15 PM 30.2 °F 19.8 °F 17.6 °F 60% 30.06 in 10.0 mi NNW 13.8 mph - N/A   Clear
1:35 PM 32.0 °F 22.5 °F 15.8 °F 51% 30.05 in 10.0 mi NW 12.7 mph 18.4 mph N/A   Clear
1:55 PM 32.0 °F 22.5 °F 17.6 °F 55% 30.05 in 10.0 mi NW 12.7 mph - N/A   Clear
2:15 PM 32.0 °F 24.2 °F 17.6 °F 55% 30.05 in 10.0 mi NNW 9.2 mph - N/A   Clear
2:35 PM 33.8 °F 24.8 °F 17.6 °F 52% 30.05 in 10.0 mi NW 12.7 mph - N/A   Clear
2:55 PM 32.0 °F 24.8 °F 17.6 °F 55% 30.04 in 10.0 mi NNW 8.1 mph - N/A   Clear
3:15 PM 33.8 °F 25.3 °F 17.6 °F 52% 30.05 in 10.0 mi NW 11.5 mph - N/A   Clear
3:35 PM 32.0 °F 23.6 °F 17.6 °F 55% 30.05 in 10.0 mi NNW 10.4 mph - N/A   Clear
3:55 PM 32.0 °F 23.6 °F 15.8 °F 51% 30.05 in 10.0 mi NNW 10.4 mph - N/A   Clear
4:15 PM 30.2 °F 22.6 °F 17.6 °F 60% 30.05 in 10.0 mi NNW 8.1 mph - N/A   Clear
4:35 PM 30.2 °F 22.6 °F 15.8 °F 55% 30.04 in 10.0 mi NNW 8.1 mph - N/A   Clear
4:55 PM - - - N/A% 30.04 in 10.0 mi NNW 9.2 mph - N/A   Clear
5:15 PM 28.4 °F 21.2 °F 15.8 °F 59% 30.06 in 10.0 mi NNW 6.9 mph - N/A   Clear
6:15 PM 26.6 °F 22.6 °F 15.8 °F 64% 30.07 in 10.0 mi NW 3.5 mph - N/A   Clear
6:55 PM 26.6 °F 22.6 °F 14.0 °F 59% 30.08 in 10.0 mi WNW 3.5 mph - N/A   Clear
7:15 PM 26.6 °F 22.6 °F 14.0 °F 59% 30.08 in 10.0 mi WNW 3.5 mph - N/A   Clear
7:35 PM 24.8 °F - 14.0 °F 64% 30.08 in 10.0 mi Calm Calm - N/A   Clear
7:56 PM 21.2 °F - 12.2 °F 68% 30.08 in 10.0 mi Calm Calm - N/A   Clear
8:15 PM 23.0 °F 18.4 °F 14.0 °F 68% 30.08 in 10.0 mi SSE 3.5 mph - N/A   Clear
8:35 PM 23.0 °F - 14.0 °F 68% 30.08 in 10.0 mi Calm Calm - N/A   Clear
9:15 PM 23.0 °F - 12.2 °F 63% 30.08 in 10.0 mi Calm Calm - N/A   Clear
9:35 PM 21.2 °F - 12.2 °F 68% 30.08 in 10.0 mi Calm Calm - N/A   Clear
9:55 PM 21.2 °F - 14.0 °F 74% 30.08 in 10.0 mi Calm Calm - N/A   Clear
10:35 PM 21.2 °F - 12.2 °F 68% 30.09 in 10.0 mi Calm Calm - N/A   Clear
10:55 PM 21.2 °F - 12.2 °F 68% 30.09 in 10.0 mi Calm Calm - N/A   Clear
11:35 PM 19.4 °F 14.3 °F 12.2 °F 74% 30.11 in 10.0 mi SSE 3.5 mph - N/A   Clear
11:55 PM 17.6 °F - 10.4 °F 73% 30.11 in 10.0 mi Calm Calm - N/A   Clear